Regional Weather Roundup
Issued by NWS State College, PA

Home | Current Version | Previous Version | Text Only | Print | Product List | Glossary Off
Versions: 1 2 3 4 5 6 7 8 9 10 11 12 13 14 15 16 17 18 19 20 21 22 23 24 25 26 27 28 29 30 31 32 33 34 35 36 37 38 39 40 41 42 43 44 45 46 47 48 49 50

000
ASUS41 KCTP 211503
RWRCTP

REGIONAL WEATHER ROUNDUP
NATIONAL WEATHER SERVICE STATE COLLEGE PA
1100 AM EDT SUN SEP 21 2014

Note: "fair" indicates few or no clouds below 12,000 feet with no
significant weather and/or obstructions to visibility.

* = STATION THAT DOES NOT REPORT PRECIPITATION /E.G. RAIN...SNOW...ETC/
    THUNDER OR FOG.

PAZ002>004-007>009-013>016-020>023-029>032-211600-
WESTERN PENNSYLVANIA

CITY           SKY/WX    TMP DP  RH WIND       PRES   REMARKS
ERIE           PTSUNNY   74  61  63 W15G25    29.67R
MEADVILLE      PTSUNNY   71  63  75 SW12G20   29.71F
FRANKLIN*      CLOUDY    68  63  83 SW12G18   29.75S
NEW CASTLE     NOT AVBL
BEAVER COUNTY  CLOUDY    70  64  83 SW14      29.76F
BUTLER*        CLOUDY    70  63  78 S8        29.78F
PITTSBURGH INT CLOUDY    69  64  84 S13       29.77F
PITTSBURGH     CLOUDY    69  63  81 S15       29.78F
INDIANA*       CLOUDY    66  64  94 SW8G16    29.83F
LATROBE        NOT AVBL
WASHINGTON CO* CLOUDY    70  64  83 SW9G18    29.80F
$$

PAZ004>006-010>012-017>019-024>028-033>037-041-042-045-046-049>053-211600-
CENTRAL PENNSYLVANIA

CITY           SKY/WX    TMP DP  RH WIND       PRES   REMARKS
BRADFORD       CLOUDY    64  62  93 S9G17     29.76F
DUBOIS         PTSUNNY   67  63  87 SW10G18   29.77F
CLEARFIELD     LGT RAIN  70  64  81 SW6       29.79F
JOHNSTOWN      MOSUNNY   70  60  70 W12G23    29.84F
ALTOONA        SUNNY     73  63  70 SW14      29.82F
STATE COLLEGE  SUNNY     72  61  68 S7        29.80F
WILLIAMSPORT   CLOUDY    71  60  68 E13       29.80F
SELINSGROVE    SUNNY     72  60  66 SW10      29.84F
FT INDIANTOWN  CLOUDY    63  63  99 VRB2      29.87F
CAPITAL CITY   MOSUNNY   68  61  78 VRB6      29.85F HAZE
HARRISBURG     PTSUNNY   69  61  75 E6        29.85F HAZE
YORK           MOSUNNY   71  61  70 VRB3      29.85F
$$

PAZ038>040-043-044-047-048-054-055-060>062-067>071-211600-
EASTERN PENNSYLVANIA

CITY           SKY/WX    TMP DP  RH WIND       PRES   REMARKS
SCRANTON       SUNNY     74  59  59 W9        29.83F
MOUNT POCONO   SUNNY     69  57  65 S8        29.88F
ALLENTOWN      CLOUDY    64  59  83 NW5       29.87F
QUAKERTOWN*    PTSUNNY   68  59  73 CALM      29.87F
READING        CLOUDY    65  61  87 CALM      29.86F
LANCASTER      CLOUDY    65  60  84 CALM      29.87F
COATESVILLE    PTSUNNY   66  63  88 CALM      29.87F
POTTSTOWN      PTSUNNY   67  60  78 CALM      29.87F
BLUE BELL      PTSUNNY   70  64  83 CALM      29.84F
DOYLESTOWN     PTSUNNY   70  63  78 CALM      29.85F
WILLOW GROVE   NOT AVBL
NORTH PHILA    CLOUDY    70  63  78 N5        29.86F
PHILADELPHIA   CLOUDY    70  65  84 VRB5      29.84F
$$


USA.gov is the U.S. government's official web portal to all federal, state and local government web resources and services.